Wind_Speed
51 50 51 54 55 53 50 49 49 49 48 47 46 44 43 42 43 43 40 38 38 35 34 35 34 35 38 36 33 34 37 40 41 39 39 38 37 37 38 38 37 36 35 34 34 35 36 38 38 37 38 38 38 38 37 38 38 38 38 39 39 39 38 39 40 40 40 40 40 40 40 40 40 41 41 42 42 43 43 44 44 45 45 46 47 48
52 51 54 57 56 53 51 51 51 51 50 48 48 46 44 44 45 45 42 40 37 34 35 36 33 35 39 39 37 35 36 40 41 41 42 41 39 38 38 38 37 37 37 36 35 35 36 39 39 39 39 39 39 39 39 39 39 39 40 40 41 41 40 40 41 41 42 42 42 42 43 43 43 43 44 44 44 45 46 47 47 48 48 49 50 51
53 53 56 57 55 53 52 51 51 51 50 50 50 48 46 46 46 46 44 41 37 34 34 36 34 34 39 40 41 39 37 39 42 43 44 42 42 41 39 38 38 38 38 37 36 36 37 39 40 40 39 39 40 40 40 40 40 40 41 41 42 42 41 42 43 43 44 44 45 45 45 45 45 46 46 46 47 47 48 49 50 51 51 52 53 54
53 54 56 56 54 53 53 52 51 51 51 51 51 49 48 48 47 45 45 41 38 35 34 35 34 34 39 41 43 43 39 40 43 44 45 44 43 43 41 41 40 39 39 39 39 38 37 39 40 41 40 40 40 41 41 40 41 41 41 42 42 43 42 43 44 45 46 46 47 47 47 47 47 48 48 48 48 49 50 51 52 53 54 55 56 57
53 55 56 56 55 54 54 53 52 52 52 52 51 50 50 50 48 45 44 42 39 36 35 36 32 33 40 43 44 46 42 41 44 44 45 46 45 43 43 43 41 40 40 40 41 40 39 39 40 41 41 40 41 41 41 41 41 42 42 42 43 43 44 45 45 46 47 47 48 48 48 48 49 49 49 50 51 52 53 54 55 56 57 58 58 59
53 55 56 56 56 56 55 54 54 54 53 53 52 52 52 51 48 46 44 42 39 37 37 36 31 31 40 43 45 48 44 42 45 44 46 47 45 44 44 44 43 42 42 41 42 42 42 42 42 42 42 42 42 42 43 43 43 43 43 44 44 45 46 47 47 48 48 48 48 49 49 50 50 51 51 52 53 54 55 56 57 58 59 60 61 61
53 56 58 58 57 56 55 55 57 58 56 54 53 54 54 51 48 46 45 42 39 37 37 36 33 30 36 43 47 49 44 43 46 46 47 48 46 45 44 44 44 44 44 44 43 44 44 44 44 44 43 43 43 44 45 45 45 45 45 46 46 46 47 48 49 49 49 50 50 51 51 52 52 53 54 55 55 56 57 58 59 60 61 61 62 62
53 58 60 59 57 56 55 56 60 61 58 55 54 55 54 51 49 46 46 43 39 37 34 36 38 33 31 40 49 48 44 46 50 49 49 49 47 46 45 45 45 46 46 45 45 46 45 45 45 46 46 45 45 46 46 47 46 46 47 48 48 49 49 50 51 51 52 52 52 53 54 54 55 56 56 57 58 59 59 60 61 61 62 62 62 62
56 59 59 59 58 56 56 59 61 62 60 57 56 56 55 53 50 47 46 43 39 36 31 35 44 37 29 35 45 47 47 50 53 52 50 49 49 47 46 46 46 46 47 47 47 47 47 47 47 48 48 47 47 48 48 48 49 49 49 50 50 51 51 52 53 53 54 54 55 56 56 57 57 58 59 59 60 60 61 61 62 62 62 63 63 63
58 58 59 59 59 58 59 61 61 62 61 59 57 56 56 54 51 48 44 42 39 32 29 38 48 41 28 31 40 44 50 56 56 55 53 52 51 49 48 48 47 48 48 48 49 48 48 48 49 50 50 49 49 49 50 50 51 51 51 52 52 53 53 54 55 56 56 57 58 59 59 60 60 61 61 62 62 62 62 63 63 63 63 63 64 65
58 59 60 60 59 60 61 61 61 62 62 60 59 58 57 55 52 47 42 41 38 30 32 44 49 39 26 26 35 40 49 57 58 58 57 54 53 51 50 50 50 50 50 50 50 49 49 49 50 50 51 51 51 51 52 52 53 53 53 54 54 55 55 56 57 58 59 60 60 61 61 62 62 63 63 64 64 64 64 64 64 64 65 65 66 67
60 61 61 60 60 61 62 61 62 64 64 63 62 59 58 54 50 46 42 41 38 32 38 46 45 36 26 28 36 39 46 56 58 59 58 57 56 54 53 52 52 52 52 51 51 50 50 50 50 51 50 51 52 53 53 53 53 54 54 55 55 56 57 58 59 60 60 61 62 62 63 63 64 64 65 65 65 65 65 65 66 66 67 67 69 70
62 62 62 61 61 60 62 63 64 65 65 65 63 60 58 53 49 46 42 43 40 37 40 43 41 35 30 35 41 40 43 50 55 57 58 58 58 58 57 56 54 54 53 53 53 52 52 51 51 51 50 51 52 53 54 54 54 55 56 56 57 58 59 60 60 61 62 62 63 63 64 65 65 65 65 66 66 66 67 67 67 68 69 70 71 72
64 64 63 62 61 62 64 66 66 65 66 65 62 60 57 54 50 46 44 45 42 39 40 41 39 35 33 40 45 43 43 46 50 54 56 57 59 60 60 58 56 55 54 54 55 55 54 53 53 52 52 52 53 54 54 54 55 56 57 57 58 59 60 61 62 62 63 63 64 65 65 66 66 66 66 67 67 68 68 69 69 70 71 72 73 74
67 65 64 64 64 65 66 67 66 66 66 62 60 59 56 54 54 50 48 47 44 42 42 41 39 36 36 40 43 43 44 47 50 52 54 56 58 60 59 59 57 56 55 55 56 56 56 55 54 53 54 54 54 54 55 55 56 56 57 58 59 60 61 62 62 63 63 64 65 65 66 66 67 67 67 67 68 68 69 70 71 72 72 74 75 76
70 68 66 67 68 67 67 67 66 65 63 60 58 58 56 57 60 56 51 48 46 45 43 41 39 37 38 39 39 41 44 49 52 52 53 55 56 58 57 57 56 55 55 55 55 56 56 55 55 55 55 55 55 55 55 56 56 56 57 58 59 60 61 61 62 62 63 63 64 64 65 65 65 66 66 67 67 68 70 71 72 72 73 74 75 76
73 72 69 69 68 67 67 67 66 64 63 61 60 59 60 61 62 59 54 51 50 47 42 40 39 38 39 38 39 43 46 49 51 51 53 55 57 58 57 56 56 55 55 55 55 55 55 55 55 55 56 56 55 55 56 56 56 56 57 58 58 59 59 60 60 61 61 62 62 63 64 64 65 65 66 66 68 69 70 71 71 72 73 74 75 76
76 72 68 67 67 68 68 68 67 65 64 63 62 62 64 63 61 61 59 55 54 50 42 40 39 39 40 39 41 47 48 48 49 50 54 57 59 60 59 57 56 55 55 54 55 55 55 55 55 55 55 54 54 54 55 55 55 55 56 57 57 57 58 59 59 60 61 62 63 64 65 65 65 65 65 66 68 69 70 71 73 74 75 75 77 78
77 73 69 67 67 68 69 69 66 64 64 63 63 64 65 64 62 63 62 58 57 54 46 42 41 41 40 41 43 46 47 47 48 51 56 59 61 61 60 58 57 56 56 55 55 55 55 55 54 54 54 54 54 54 54 54 54 55 56 56 57 58 59 60 61 61 62 63 64 64 64 64 64 65 66 68 70 72 73 74 75 76 77 77 78 79
78 76 72 69 69 70 70 68 65 64 65 66 66 66 66 66 65 64 64 61 60 58 52 47 44 41 39 41 43 43 43 46 50 54 57 60 62 61 60 59 58 57 56 55 55 55 55 55 54 54 55 55 55 55 55 55 55 56 57 57 59 59 60 60 61 61 62 63 63 64 65 66 67 68 70 72 73 75 76 76 77 77 78 78 79 80
80 78 75 73 73 74 71 69 69 69 71 71 69 68 67 67 67 66 66 65 63 61 58 55 47 39 38 41 42 41 43 49 54 55 57 61 64 63 62 61 60 58 57 56 55 55 55 55 55 55 56 56 57 57 57 57 57 58 59 59 60 60 60 60 61 62 63 64 65 66 68 69 71 72 73 74 75 76 76 77 77 77 78 79 80 81
81 81 80 79 78 76 75 75 76 75 74 72 70 68 67 68 69 69 67 66 66 65 63 62 51 38 38 43 42 43 48 54 57 55 57 62 64 64 64 63 62 61 59 58 56 56 56 56 56 57 57 57 57 58 58 59 59 60 60 61 61 61 61 62 63 64 65 66 68 69 70 71 72 73 74 75 75 76 76 77 77 78 79 81 82 82
83 85 84 83 80 79 79 80 78 77 75 73 72 70 70 71 71 71 70 69 70 69 67 67 57 43 41 45 44 48 54 58 59 58 58 60 62 63 64 64 64 62 61 60 58 58 58 58 58 58 58 58 58 58 59 60 60 61 61 62 62 63 65 66 66 67 68 68 69 70 71 71 72 73 74 75 75 76 77 78 79 80 81 82 83 84
84 85 84 83 81 81 81 80 79 78 77 75 73 72 73 74 74 76 76 75 75 72 69 70 62 49 47 48 49 55 59 60 61 61 61 61 61 62 64 65 65 64 63 63 62 61 61 61 60 60 59 59 59 59 60 61 62 63 64 65 66 67 68 69 69 69 69 70 71 72 73 74 75 75 76 76 77 78 79 80 81 82 83 84 85 86
86 87 86 85 84 82 81 80 77 76 76 76 76 76 77 78 80 81 80 80 77 71 70 72 64 54 55 57 56 59 62 63 65 65 65 65 64 65 66 67 66 66 66 67 66 65 64 63 63 62 61 61 61 61 62 63 64 66 67 68 69 70 71 71 71 71 72 73 74 75 76 77 77 77 78 78 79 80 81 82 83 84 85 86 87 88
90 90 89 88 86 83 80 78 76 77 80 80 79 78 79 80 82 82 82 82 77 70 72 73 66 61 63 64 62 63 65 67 68 68 69 70 70 69 69 69 70 70 69 69 69 68 68 66 65 64 64 65 65 65 66 67 69 70 71 72 73 73 73 73 73 74 75 76 77 77 78 79 79 79 79 80 80 81 82 83 84 85 87 88 89 90
94 93 92 90 87 83 80 80 81 83 84 83 80 80 81 82 83 84 84 81 77 76 76 73 70 69 68 66 66 65 66 67 67 68 70 72 71 70 70 71 72 73 72 70 70 70 69 68 67 67 67 68 69 70 71 72 73 74 74 75 75 75 76 76 76 77 78 78 78 78 79 79 80 80 81 81 82 83 84 85 86 88 89 90 91 92
96 95 93 91 90 87 85 86 88 88 86 85 83 84 84 84 85 86 83 79 80 84 80 73 74 76 69 65 65 65 66 68 68 70 71 69 68 68 68 70 71 72 73 72 72 71 71 70 70 70 71 72 73 74 74 74 75 76 77 77 78 78 78 79 79 79 79 78 78 79 80 80 81 81 82 82 83 85 86 88 89 91 92 93 94 95
95 95 93 93 93 91 89 90 91 90 89 88 88 87 86 87 87 85 82 80 84 88 82 75 78 77 68 63 64 66 69 69 69 71 71 70 68 67 66 67 68 70 73 74 75 75 74 74 74 74 75 76 76 76 76 77 77 78 79 80 80 81 81 80 80 79 79 79 80 80 81 81 82 83 83 84 86 87 89 90 92 93 94 95 96 97
99 97 95 95 95 93 90 92 93 92 91 90 89 89 89 89 88 85 84 84 88 89 82 77 79 77 69 67 68 69 72 72 71 72 72 72 71 69 67 66 66 67 70 73 75 76 77 77 77 78 78 78 79 79 79 79 79 80 81 82 82 81 81 81 80 80 80 80 81 82 82 83 84 85 86 87 88 89 91 92 93 94 95 96 97 98
102 100 98 98 97 94 91 93 95 95 94 92 92 91 90 88 89 90 90 90 91 90 86 84 84 78 70 69 72 74 76 75 73 72 71 72 73 72 70 68 66 66 67 69 72 73 75 76 77 77 78 78 79 79 79 79 79 80 81 82 81 80 80 80 80 81 81 82 83 84 84 85 87 88 89 89 90 91 92 93 94 95 97 98 99 100
105 104 103 102 101 96 92 94 97 97 98 99 97 93 90 90 93 95 95 94 94 93 91 90 87 77 71 73 77 78 78 78 76 74 72 73 73 72 70 68 67 67 68 69 70 71 73 74 74 75 76 76 77 78 78 78 78 79 80 81 81 80 81 81 82 83 84 84 85 86 87 88 89 90 90 91 92 92 93 94 95 97 99 100 101 103
108 109 108 108 108 104 101 102 103 105 108 107 100 94 93 96 98 98 96 94 94 94 94 92 86 78 76 78 78 78 81 82 80 78 77 76 75 74 73 71 70 70 70 71 70 71 71 72 73 74 75 75 76 77 78 78 78 79 80 81 81 81 82 83 84 85 86 87 88 89 90 90 90 91 91 92 93 93 94 96 98 100 101 102 104 105
109 109 109 110 110 108 106 106 108 111 111 105 97 94 96 99 99 99 97 96 95 96 95 93 88 82 81 82 82 82 84 84 83 82 80 79 78 77 76 76 75 75 74 74 72 72 72 73 73 74 76 77 78 79 79 79 80 81 82 82 83 84 85 86 87 88 88 89 90 91 91 91 91 92 93 93 94 96 97 99 101 102 104 105 106 106
110 110 109 110 110 109 107 107 109 110 106 99 95 96 99 100 100 100 100 98 97 96 94 92 89 85 84 86 87 88 87 86 85 83 81 80 80 80 80 80 79 78 77 76 75 75 75 75 76 77 78 79 80 80 81 81 82 83 83 84 85 85 86 87 88 88 89 91 91 92 92 92 93 93 94 95 97 98 100 102 103 105 106 107 107 107
111 111 111 111 112 112 111 112 112 110 106 102 100 99 99 99 100 101 100 96 93 92 91 90 88 86 86 88 89 90 90 88 85 80 78 80 82 83 82 81 80 79 77 76 76 76 76 76 77 78 79 79 80 81 81 82 82 82 83 83 84 84 86 87 88 89 91 92 93 93 93 94 95 96 97 98 100 101 103 104 106 107 108 108 108 108
111 112 112 112 112 112 112 112 111 111 108 104 100 98 97 98 99 100 99 95 90 89 89 90 88 87 87 87 88 89 89 86 81 77 76 79 81 82 81 79 78 77 76 76 76 75 75 75 75 76 78 79 80 81 82 82 83 83 84 85 85 87 88 88 90 91 93 94 95 95 96 97 98 99 100 101 102 103 105 106 107 108 109 110 110 110
112 112 112 112 112 111 111 111 112 113 110 102 97 97 97 97 97 99 100 94 87 85 88 90 89 86 85 86 86 86 86 83 77 74 76 78 78 78 78 78 78 77 77 76 76 76 76 77 78 79 80 81 82 83 84 85 86 87 87 88 89 89 90 91 92 93 94 95 96 96 98 99 100 101 102 103 104 105 107 108 109 110 111 111 111 112
113 112 112 112 112 111 112 112 114 113 108 100 95 95 96 95 95 99 100 93 84 84 89 91 90 87 85 85 84 84 84 81 77 76 78 77 76 76 77 78 79 79 79 80 80 81 81 82 82 83 83 84 85 86 87 88 89 90 91 91 92 92 93 94 95 95 95 96 97 98 100 101 102 103 104 105 106 107 108 109 110 112 112 113 113 114
112 111 111 111 112 112 112 112 112 110 105 99 95 94 94 95 97 100 99 91 85 87 90 91 90 88 86 85 84 84 84 83 80 79 79 78 78 79 79 80 82 83 84 84 85 86 86 87 87 87 87 88 89 90 91 92 92 93 93 94 94 95 95 96 97 97 97 98 99 100 101 102 104 105 106 107 108 109 110 111 112 113 114 115 116 117
111 110 111 111 111 111 111 110 110 107 103 100 98 97 97 98 99 99 96 91 89 89 89 89 89 88 87 86 86 86 86 85 83 82 81 82 83 84 85 86 88 89 90 90 91 91 91 91 91 92 92 92 93 94 94 94 95 95 95 95 96 97 98 98 99 99 100 101 101 102 103 104 105 106 108 108 110 111 112 114 115 116 117 118 119 121
110 110 111 111 111 110 109 109 109 107 103 101 101 101 101 101 100 98 96 95 92 89 87 86 86 86 87 88 88 89 88 88 87 87 87 88 88 89 91 92 93 94 95 95 95 96 96 96 96 96 96 96 96 97 97 97 97 97 97 97 98 99 100 101 101 102 103 103 104 105 105 106 107 108 110 111 112 114 115 116 118 119 120 122 123 125
111 111 112 111 110 109 110 110 110 107 103 102 103 105 104 104 103 101 100 98 95 92 90 89 88 88 89 90 91 92 92 92 93 93 93 94 94 95 96 97 97 98 98 98 99 99 99 99 99 99 99 99 99 100 100 100 99 99 99 100 101 101 102 103 104 105 105 106 107 107 108 109 110 111 112 114 115 116 118 119 121 122 124 126 127 129
113 113 112 111 110 110 110 110 109 107 105 105 107 108 108 108 107 106 104 103 100 98 96 94 93 93 93 93 94 95 96 97 97 98 98 98 99 100 100 101 101 101 101 101 101 102 102 102 102 102 102 102 102 102 102 102 102 102 102 103 103 104 105 106 107 107 108 108 109 109 110 111 112 114 115 117 118 119 121 122 124 126 128 129 131 133
114 113 112 111 111 111 110 110 110 109 109 110 110 110 111 111 111 110 109 107 106 103 101 99 98 97 97 97 98 99 100 101 101 101 101 102 103 103 104 104 104 103 103 104 104 104 105 105 105 105 105 104 104 104 104 104 104 104 105 105 106 107 108 109 109 110 110 111 111 112 113 114 115 117 118 120 121 122 124 126 127 129 131 133 135 137
116 115 115 114 113 113 112 112 112 112 112 112 113 113 113 113 113 113 112 111 110 109 107 106 105 104 103 103 103 103 104 104 104 105 106 106 107 107 107 107 107 107 106 107 107 108 108 108 108 107 107 106 106 106 106 106 106 107 108 109 109 110 111 111 112 112 113 113 114 115 116 117 119 120 121 123 124 126 127 129 130 132 134 136 138 140
120 118 117 116 115 114 113 113 113 113 113 114 115 115 115 115 115 115 116 115 115 114 113 112 111 110 109 108 108 108 108 109 109 110 111 111 111 111 110 110 110 110 110 111 111 111 111 111 110 110 109 108 108 108 108 108 109 111 112 112 113 113 114 114 115 115 116 117 118 119 120 121 122 123 125 126 128 129 131 132 134 136 138 140 142 144
122 121 120 119 117 117 115 114 114 114 115 115 116 116 117 117 118 118 119 119 119 118 117 117 116 115 115 114 114 113 114 114 115 115 115 115 115 114 114 114 114 114 115 114 114 113 113 112 112 111 110 110 110 110 111 112 113 114 115 115 116 116 116 117 118 119 120 121 121 122 124 124 126 127 128 130 131 133 135 137 139 140 142 144 145 146
127 125 123 122 121 120 118 117 116 117 117 118 119 120 121 122 122 122 122 122 121 121 120 120 120 119 119 119 118 118 119 119 119 119 119 118 118 117 117 117 117 117 117 116 116 115 114 114 113 112 112 112 112 113 114 115 116 117 117 118 118 119 119 120 121 122 123 124 125 126 127 128 129 131 132 134 135 137 139 141 143 144 145 147 147 148
134 131 130 128 127 125 125 124 124 124 124 125 125 125 126 126 125 125 124 124 124 124 124 123 123 122 122 122 122 122 122 122 122 121 120 120 120 120 119 119 119 119 118 118 117 116 116 115 114 114 115 115 116 116 117 118 118 119 120 120 121 122 123 124 125 126 127 128 129 130 131 132 134 135 137 139 141 142 144 145 146 147 147 147 147 147
139 138 136 135 133 132 131 131 131 131 130 130 130 129 128 128 127 127 127 127 127 127 127 126 125 125 125 125 125 125 124 124 123 122 121 121 121 120 120 120 120 119 119 119 118 118 118 118 117 118 118 118 119 120 120 121 121 122 123 124 125 126 127 128 129 130 131 132 133 134 136 137 139 141 142 144 145 146 147 147 147 147 146 146 145 144
Wind_Direction
259 261 262 262 262 263 263 264 263 263 263 264 264 264 264 265 264 263 261 261 263 265 267 269 271 272 274 275 273 274 276 277 278 280 278 276 274 274 274 275 275 275 273 271 270 269 269 269 270 270 269 269 268 267 266 265 265 264 263 262 262 262 262 263 264 265 265 265 265 266 266 267 267 268 269 270 271 272 274 275 277 278 279 280 281 283
258 260 260 261 263 264 264 263 263 264 264 264 264 263 263 264 264 265 264 262 263 264 265 268 269 269 272 275 274 272 271 274 278 279 278 277 277 275 274 275 276 275 274 274 272 271 268 268 269 270 271 271 271 269 268 266 266 266 265 264 263 263 263 264 264 265 266 266 266 267 268 269 270 271 272 273 274 276 277 278 280 281 282 283 283 284
257 258 259 261 263 264 264 264 264 264 264 264 263 263 263 262 262 264 265 264 264 264 264 267 269 268 268 271 272 272 270 271 274 275 276 278 278 277 277 276 275 275 276 276 274 272 270 269 270 270 270 271 271 271 271 270 269 268 267 266 265 265 264 265 265 265 266 267 267 268 268 270 271 272 274 275 277 278 279 281 282 283 284 284 285 286
255 256 258 260 262 263 264 264 264 263 263 263 264 264 263 261 260 262 265 265 265 264 264 265 267 268 267 268 270 271 271 271 271 273 275 276 276 277 277 276 275 276 276 276 275 273 271 270 270 271 271 271 271 271 272 272 271 270 269 268 268 268 267 266 266 267 267 268 269 270 271 272 273 274 275 276 277 278 279 281 281 282 283 283 284 285
255 256 258 260 262 263 263 263 263 263 263 263 263 263 262 261 260 261 263 264 265 265 263 262 264 265 266 268 270 270 271 272 272 273 273 274 274 274 275 276 276 276 275 274 274 274 272 270 270 270 271 271 271 272 272 272 271 271 270 269 269 269 268 267 267 268 269 270 271 273 274 274 275 275 276 277 278 278 279 280 280 281 282 282 283 284
255 257 258 259 260 261 262 264 264 263 262 262 262 263 262 261 261 260 261 261 262 263 263 263 262 260 265 269 269 270 272 272 272 272 272 272 272 273 274 276 276 275 274 273 272 272 273 272 271 271 272 272 272 273 273 272 271 271 271 271 271 270 270 270 270 271 272 273 274 274 275 275 276 277 278 279 279 280 280 280 281 281 282 282 283 284
255 257 257 257 259 260 262 264 264 262 261 261 262 262 262 261 262 262 261 260 259 261 264 266 262 255 261 268 267 269 272 273 271 270 269 270 272 273 274 275 275 275 275 274 274 273 273 273 273 273 273 272 272 272 272 272 272 273 273 273 272 272 272 272 273 273 274 274 275 275 276 277 278 279 279 280 281 281 281 281 281 282 282 283 284 284
253 255 256 257 258 260 261 262 262 262 261 261 261 261 262 262 261 261 261 261 260 260 263 269 265 255 255 264 268 271 272 271 269 267 267 270 271 272 272 273 274 275 275 275 275 274 274 273 273 273 273 273 272 272 272 273 273 273 273 273 273 273 273 274 274 275 275 275 275 275 276 277 278 279 279 280 280 281 281 282 282 282 282 283 284 284
250 252 255 257 258 259 260 260 261 262 263 262 262 262 262 262 260 259 259 260 260 261 264 268 265 256 249 258 268 274 274 269 267 266 266 268 269 270 271 271 272 273 274 274 273 273 273 273 273 273 273 273 272 272 273 273 273 272 273 273 273 273 274 274 275 275 275 275 276 276 277 278 278 279 279 279 280 281 282 282 283 283 283 283 283 283
248 251 253 256 258 259 258 259 260 262 263 263 263 262 262 261 261 260 260 262 261 261 265 264 260 255 250 258 266 271 274 272 270 269 267 267 268 269 270 270 271 271 271 271 271 271 271 272 272 273 273 273 273 273 273 272 272 272 273 273 273 273 273 274 274 274 275 276 276 277 277 278 279 279 280 280 281 282 282 283 283 283 283 283 283 284
248 249 251 253 255 257 257 259 260 262 262 262 262 262 262 262 263 264 264 264 262 258 258 258 258 258 256 260 261 261 267 270 271 272 272 271 271 270 270 270 270 270 269 269 270 270 271 271 271 271 272 273 273 273 273 272 272 273 272 272 273 273 273 274 274 274 275 276 276 277 278 279 279 279 280 280 281 282 283 283 283 283 284 284 284 285
248 248 249 250 252 254 257 259 260 260 261 261 261 262 263 265 267 267 266 265 261 254 254 257 260 261 256 254 256 256 260 267 271 274 276 277 277 276 274 272 271 271 271 271 272 272 272 272 271 271 272 272 272 272 273 273 273 272 272 272 273 273 274 274 274 274 275 276 276 277 278 278 279 279 280 281 282 282 283 283 284 283 283 284 284 285
247 247 248 249 250 253 255 256 257 259 261 262 264 265 266 267 268 268 267 264 261 255 254 258 261 261 257 256 258 259 261 268 273 276 278 278 278 277 276 274 274 274 274 275 275 275 274 273 273 273 273 272 272 271 272 272 272 272 272 273 273 273 274 274 274 275 275 276 277 277 278 279 279 280 281 281 282 283 283 283 283 283 283 284 285 286
246 247 248 249 250 251 253 254 256 258 260 263 266 268 270 270 269 266 264 262 260 257 255 257 259 260 259 260 262 263 264 266 269 271 274 276 277 277 277 277 277 277 277 277 277 276 276 275 275 274 273 272 272 271 272 272 272 272 272 273 273 273 274 274 275 276 276 277 277 278 278 279 279 280 281 281 282 282 282 283 283 284 285 286 286 287
247 247 249 249 249 250 251 254 256 258 261 265 268 270 272 272 269 265 262 262 262 259 257 257 257 257 259 262 265 268 268 265 263 265 268 271 273 275 277 278 279 279 278 277 276 276 276 276 275 275 274 273 273 273 273 273 274 274 274 274 274 274 275 275 276 276 277 278 278 279 279 280 280 281 282 282 283 283 283 283 284 285 286 287 287 288
247 247 247 248 249 251 253 256 258 261 263 265 267 269 269 269 268 267 266 265 263 261 260 259 258 257 257 260 265 267 267 267 266 266 268 269 271 272 274 275 276 276 276 275 275 275 275 275 275 274 274 274 274 275 275 275 275 275 275 275 275 276 276 277 277 278 279 279 280 280 280 281 281 282 283 283 283 284 284 284 285 286 287 288 289 290
247 247 247 249 252 254 256 258 260 261 263 264 266 267 267 267 269 271 270 267 264 262 262 261 261 259 258 259 262 263 263 266 269 271 271 271 270 270 271 272 273 274 274 274 274 274 274 274 274 274 274 274 275 275 275 275 274 275 275 275 276 276 277 278 278 279 280 280 280 280 280 281 281 282 283 283 283 284 284 285 286 287 288 288 289 290
247 249 250 252 254 256 258 259 260 262 265 266 267 267 267 268 270 271 269 268 267 266 263 261 261 259 259 260 260 262 265 268 271 273 272 271 270 270 271 271 273 274 275 275 275 275 275 274 274 274 275 275 275 275 274 274 274 274 275 275 276 276 277 278 279 280 280 280 280 281 281 281 282 282 283 283 284 284 285 286 287 287 288 289 290 291
250 252 252 252 254 256 258 260 262 264 266 266 266 266 267 269 270 270 271 271 270 269 265 259 258 258 259 261 261 264 269 272 273 272 271 271 272 272 273 274 274 274 276 277 277 277 277 277 277 277 277 277 276 275 275 275 275 275 275 276 277 278 279 280 281 281 281 281 281 281 281 282 282 283 283 284 284 285 285 286 287 288 289 290 290 291
251 252 252 252 254 256 258 261 262 263 262 262 263 265 268 270 271 272 273 273 272 270 268 262 257 258 260 263 264 267 270 272 271 270 271 272 273 273 274 274 274 275 275 276 277 278 278 278 279 279 278 278 278 277 277 277 277 277 278 279 280 280 281 281 281 281 281 281 281 282 282 283 283 284 284 285 285 286 287 288 289 290 290 290 290 290
252 253 253 251 252 254 256 258 258 259 260 262 265 268 270 272 273 273 273 273 273 272 270 266 262 262 264 265 265 268 270 270 268 269 271 272 272 273 274 274 274 274 275 275 275 276 276 277 277 278 278 278 278 278 278 278 279 279 280 281 281 281 281 281 281 281 282 282 282 283 283 284 285 286 286 287 287 288 289 289 290 290 289 289 289 290
252 252 252 251 251 253 255 256 257 259 262 265 267 269 270 270 271 271 272 273 273 271 271 270 269 267 265 265 265 268 270 269 269 270 271 273 274 276 276 276 275 275 274 274 273 274 274 275 275 276 276 277 278 278 279 279 280 281 281 280 280 280 280 281 281 282 282 283 284 285 286 286 287 288 288 289 289 290 290 290 289 289 289 289 289 290
252 253 253 254 254 255 256 257 258 260 261 263 264 266 267 268 269 270 269 269 269 270 273 275 275 272 268 268 267 266 267 268 270 271 272 274 277 279 279 279 277 277 276 275 274 274 275 275 276 276 277 277 278 279 279 280 280 280 280 280 280 280 281 282 282 283 284 285 286 287 288 289 289 290 290 290 290 290 290 289 289 289 289 289 290 291
254 254 255 255 255 255 256 257 258 260 261 262 263 264 264 265 266 266 267 267 268 271 275 276 278 279 276 272 268 266 267 270 271 272 272 274 276 278 278 278 278 278 279 278 277 276 276 276 276 277 277 278 279 279 279 280 280 280 280 280 281 281 282 283 284 285 286 287 288 289 289 290 291 291 291 291 291 290 290 289 289 289 290 290 291 292
254 255 255 255 255 256 257 259 260 262 262 261 260 261 262 263 265 266 268 269 271 274 276 277 280 282 279 275 272 271 272 273 273 273 274 274 274 274 275 277 279 279 279 278 278 277 277 277 277 278 278 278 279 279 280 281 281 281 282 282 282 283 284 285 286 286 287 288 288 289 290 291 291 291 291 291 290 290 289 289 289 290 290 291 291 292
254 255 256 256 257 258 259 260 260 259 259 259 260 262 263 265 266 268 269 271 274 277 277 278 281 282 279 278 277 276 275 275 274 274 274 273 273 273 275 277 278 278 278 278 278 278 278 278 278 278 278 279 280 280 281 282 283 284 284 284 284 285 286 287 287 288 288 288 289 290 291 291 291 291 291 291 290 290 289 289 290 290 291 291 292 292
253 254 256 257 258 259 259 259 258 258 259 261 263 264 265 266 267 269 271 274 278 278 277 280 282 280 279 281 281 280 278 276 275 274 273 272 273 274 275 275 276 276 277 278 278 278 277 277 277 278 279 281 282 282 283 283 284 284 285 285 286 286 287 287 288 288 289 289 290 290 290 290 291 291 291 291 290 290 289 289 290 291 291 292 292 293
253 254 256 257 257 256 256 257 258 259 261 263 263 264 266 267 268 270 274 277 279 277 277 280 280 279 281 282 281 280 279 277 276 274 274 274 275 276 275 274 274 275 275 276 276 276 276 276 277 278 280 282 283 283 283 283 284 284 285 285 286 286 287 287 288 288 289 289 289 290 290 290 290 290 290 290 290 290 290 290 291 291 292 293 293 294
251 253 254 255 255 255 255 257 258 260 262 263 265 266 267 268 270 272 275 277 276 275 277 278 278 278 279 279 278 280 279 278 276 277 278 279 278 277 277 276 275 274 274 275 275 276 277 277 277 279 280 281 282 282 282 283 283 284 285 285 286 286 287 287 288 288 288 288 289 289 289 290 290 290 290 290 290 290 290 291 292 293 293 294 294 294
248 250 252 253 255 255 256 257 258 259 261 262 264 266 267 269 272 275 276 276 275 275 277 277 276 276 277 277 278 278 278 278 279 280 281 280 279 278 278 277 276 275 275 276 276 277 277 278 278 278 279 280 280 281 282 282 283 284 284 285 285 286 287 287 287 287 287 287 288 288 289 289 289 290 290 290 291 291 291 292 293 293 294 294 293 294
248 249 251 252 254 254 255 256 258 258 259 261 262 264 267 270 274 276 276 275 275 276 277 276 275 277 279 279 277 276 277 279 281 281 280 280 281 281 280 278 278 277 277 277 277 278 278 279 279 279 280 280 281 281 282 283 283 284 284 285 285 286 286 286 286 286 286 287 288 288 289 289 290 290 290 291 291 291 292 293 293 293 293 293 294 294
249 250 250 251 253 253 254 256 257 258 259 260 260 263 267 271 272 273 273 273 275 277 277 276 277 279 279 277 276 277 279 280 280 280 281 282 282 282 281 280 279 278 277 277 277 278 279 280 281 281 281 282 282 283 283 283 283 284 284 284 285 286 286 286 286 286 287 288 288 289 289 290 290 290 290 291 291 292 292 293 293 293 293 294 294 295
250 252 252 253 254 254 255 256 257 259 259 260 262 265 268 268 268 269 271 273 275 276 277 278 279 279 278 277 278 280 280 280 281 282 283 283 283 282 281 280 279 278 277 277 277 278 278 279 280 280 281 281 282 282 282 283 283 283 283 284 285 285 285 286 286 286 287 287 288 288 288 289 290 290 290 291 291 292 292 293 293 294 294 295 295 295
251 253 254 255 256 256 257 257 258 258 260 262 265 267 267 267 269 271 272 274 275 276 277 278 279 279 278 279 279 279 279 281 282 283 284 285 285 284 282 281 279 278 277 277 277 277 277 277 278 279 280 281 281 281 282 282 282 282 282 283 284 284 284 284 285 285 286 286 286 287 287 288 289 290 291 292 292 292 293 293 294 295 295 296 296 296
254 254 255 256 257 258 259 259 259 260 262 265 266 266 268 270 272 273 274 274 275 276 276 277 277 278 278 279 279 279 279 279 280 282 284 285 285 283 282 281 281 279 278 277 277 277 277 277 278 279 279 280 280 281 281 282 282 282 283 283 283 283 284 284 284 285 285 285 286 287 288 288 289 291 292 292 292 293 293 294 295 295 295 296 296 296
256 257 257 257 258 260 260 261 261 263 264 264 264 266 269 271 272 272 273 273 274 276 277 278 279 280 280 279 279 277 276 276 278 281 283 283 282 281 280 281 281 281 280 279 278 278 277 277 277 278 278 279 280 281 282 282 283 284 285 285 285 285 285 285 286 286 287 287 288 289 289 290 291 292 293 293 293 294 294 295 295 295 296 296 297 297
257 258 259 259 260 261 262 263 264 264 264 264 266 268 269 270 271 272 273 274 275 278 280 282 282 281 280 279 277 275 274 275 277 280 281 280 279 279 280 281 281 282 282 281 281 279 278 278 279 279 280 281 282 283 284 285 286 286 286 287 287 287 287 288 289 289 289 289 290 291 292 292 293 293 293 294 294 295 295 295 295 296 296 297 298 299
258 258 259 260 261 262 262 263 264 265 265 267 268 269 269 270 271 272 273 275 277 279 281 281 280 279 278 276 275 274 274 276 278 279 278 277 278 279 280 281 281 282 283 283 283 282 282 283 283 284 284 285 285 286 286 287 287 287 288 288 288 289 290 291 291 291 291 291 292 292 293 292 292 293 293 294 294 295 295 296 296 297 297 298 299 300
259 259 259 260 261 262 263 264 265 267 268 269 269 269 269 270 270 271 273 275 279 280 279 278 277 276 275 275 274 274 275 277 279 279 278 279 280 281 281 281 281 282 283 283 284 284 285 286 286 286 286 287 287 288 288 288 289 289 290 290 290 291 292 292 292 292 293 293 293 292 292 292 292 293 293 294 294 295 296 296 297 297 298 299 300 301
259 260 260 260 262 263 265 266 267 269 270 270 269 269 269 269 270 272 275 278 279 277 276 276 276 276 276 275 275 275 276 277 278 279 280 281 282 282 283 283 283 284 285 285 286 286 287 287 288 288 288 288 288 289 289 290 290 290 291 291 291 291 291 292 293 293 293 292 292 291 291 292 292 293 293 294 295 296 296 297 298 298 299 300 301 303
257 258 260 261 263 264 266 267 268 269 270 270 270 270 270 271 272 273 276 277 276 275 275 276 277 277 277 277 276 277 277 278 279 279 281 282 283 284 285 285 286 287 287 288 288 288 289 289 289 289 289 289 289 289 290 290 290 290 291 291 291 291 291 292 292 292 292 292 291 291 292 292 293 293 294 295 296 296 297 298 298 299 300 301 302 303
255 257 259 261 263 264 265 266 267 268 269 270 271 271 271 271 272 274 275 276 276 276 277 277 277 276 276 277 277 278 279 280 280 281 282 284 285 285 286 286 287 288 288 288 289 289 289 289 289 289 289 289 289 289 289 290 290 291 291 291 291 291 292 292 292 292 292 292 292 292 292 293 293 294 295 296 296 297 298 298 299 300 301 302 303 303
255 257 259 261 262 263 264 265 266 268 270 270 270 270 271 272 274 275 276 277 278 277 277 277 277 277 277 277 278 279 280 281 282 282 283 284 285 286 286 287 287 288 288 288 288 288 288 288 289 289 289 289 289 289 289 290 291 291 292 292 292 292 292 292 292 292 292 292 292 292 293 293 294 295 295 296 297 297 298 299 300 301 302 302 303 304
256 259 260 261 262 262 263 265 266 267 267 267 268 270 273 275 276 277 278 278 278 278 277 277 277 277 277 277 278 279 280 280 281 282 283 284 285 285 286 287 287 288 288 287 287 287 288 288 288 289 289 289 289 289 290 290 291 292 292 292 292 292 291 291 291 291 292 292 292 293 293 294 294 295 295 296 297 298 299 299 300 301 302 302 303 303
257 259 260 260 261 261 262 264 265 266 266 268 269 271 274 275 277 277 278 278 278 278 277 277 276 276 276 277 277 278 279 279 280 280 281 282 284 285 286 286 287 287 287 287 287 287 288 288 288 288 288 289 289 289 290 290 291 291 291 291 291 290 290 290 291 291 292 292 293 293 294 294 294 295 296 296 297 298 299 299 300 301 301 301 302 302
255 257 257 258 259 260 262 263 264 266 267 269 270 271 273 274 275 276 277 277 277 277 277 277 277 277 277 277 278 278 278 279 279 280 281 282 283 284 285 286 286 286 287 287 287 288 288 288 288 288 289 289 289 289 289 290 290 290 290 290 290 290 291 291 292 292 292 293 293 293 294 294 294 295 296 297 297 298 298 299 299 300 300 300 300 300
254 255 256 257 258 260 261 262 264 265 266 268 269 271 272 273 274 274 275 276 276 277 278 278 278 278 278 278 279 279 279 280 281 281 282 283 284 284 285 286 286 287 287 288 288 288 288 288 289 289 289 289 289 289 289 289 289 289 290 290 291 291 291 292 292 292 293 293 293 294 294 294 295 295 296 296 297 297 297 298 298 298 298 299 299 299
253 253 254 256 258 259 260 261 262 263 265 266 268 269 270 271 272 273 274 275 276 277 278 278 279 279 279 279 280 281 282 282 283 283 283 284 284 285 286 286 287 288 288 288 288 288 289 289 289 289 289 289 289 288 288 288 289 289 290 291 291 291 291 292 292 292 293 293 293 294 294 294 294 294 295 295 295 296 296 296 297 297 298 298 298 299
252 253 254 256 258 259 260 261 261 262 263 265 266 267 269 270 271 272 273 274 275 276 276 277 278 278 279 280 281 282 282 283 283 284 284 284 285 286 286 287 288 288 288 288 288 288 289 289 289 288 288 288 288 288 288 288 289 290 290 290 290 291 291 291 292 292 292 292 292 292 292 293 293 293 293 294 294 295 295 296 296 297 297 297 298 298
253 253 254 255 257 258 259 260 261 262 263 264 266 267 268 269 270 271 272 272 273 274 275 276 277 278 279 280 281 282 282 283 283 283 283 284 285 286 286 287 287 288 288 288 288 288 288 288 287 287 287 287 287 288 288 288 288 289 289 289 289 290 290 290 290 290 291 291 291 291 292 292 292 293 293 293 294 294 295 295 296 296 297 297 298 299
253 254 254 255 256 257 258 259 261 262 263 264 265 266 267 268 269 270 271 272 273 274 275 276 277 278 279 280 280 281 281 282 282 283 283 284 284 285 286 286 286 286 287 287 287 287 287 287 287 287 287 287 287 287 287 287 287 288 288 288 289 289 289 290 290 290 290 290 291 291 292 292 292 292 293 293 294 294 295 295 296 296 297 298 299 299
Height
10753 10755 10754 10750 10749 10753 10758 10759 10759 10759 10761 10763 10764 10766 10767 10767 10766 10766 10769 10771 10772 10774 10774 10774 10775 10773 10770 10771 10772 10772 10770 10766 10765 10765 10766 10766 10768 10768 10767 10767 10767 10768 10768 10768 10768 10768 10767 10766 10767 10767 10767 10767 10767 10767 10767 10766 10766 10766 10765 10765 10764 10764 10764 10763 10762 10761 10761 10760 10759 10758 10758 10757 10756 10756 10755 10754 10753 10752 10750 10749 10748 10746 10745 10743 10742 10741
10748 10750 10746 10742 10745 10749 10751 10753 10753 10754 10756 10758 10759 10761 10763 10762 10761 10761 10764 10767 10769 10772 10771 10770 10773 10771 10767 10766 10767 10768 10767 10763 10761 10761 10759 10760 10763 10763 10763 10764 10764 10764 10764 10764 10765 10764 10764 10762 10762 10763 10763 10763 10763 10763 10763 10763 10762 10762 10762 10761 10760 10760 10760 10759 10758 10757 10756 10755 10755 10754 10753 10752 10752 10751 10750 10749 10748 10746 10745 10743 10742 10740 10739 10737 10736 10734
10743 10744 10739 10737 10741 10744 10745 10746 10748 10749 10750 10751 10753 10755 10758 10757 10756 10757 10758 10762 10765 10768 10768 10767 10769 10768 10764 10762 10761 10761 10763 10761 10758 10756 10755 10756 10756 10757 10759 10760 10760 10760 10760 10760 10760 10761 10760 10758 10758 10758 10759 10759 10759 10758 10758 10759 10758 10758 10758 10757 10756 10756 10756 10755 10753 10753 10752 10751 10750 10749 10748 10747 10747 10746 10745 10744 10742 10741 10739 10737 10736 10734 10732 10731 10729 10727
10738 10736 10733 10733 10736 10738 10739 10740 10741 10743 10744 10745 10747 10750 10751 10750 10752 10753 10753 10757 10761 10763 10765 10764 10766 10765 10759 10758 10756 10755 10758 10757 10753 10752 10751 10752 10752 10752 10753 10754 10755 10755 10756 10755 10755 10756 10756 10755 10754 10754 10755 10755 10754 10754 10754 10754 10754 10753 10753 10753 10752 10751 10751 10750 10749 10748 10747 10745 10744 10743 10743 10743 10741 10740 10739 10738 10737 10735 10733 10731 10730 10728 10726 10724 10723 10721
10732 10730 10729 10729 10730 10732 10731 10733 10735 10736 10738 10739 10740 10743 10744 10744 10747 10750 10750 10753 10756 10758 10760 10760 10764 10763 10754 10753 10751 10749 10753 10752 10749 10749 10747 10746 10747 10748 10748 10748 10750 10751 10751 10751 10750 10750 10751 10751 10750 10749 10750 10751 10750 10750 10750 10750 10749 10749 10748 10748 10748 10746 10745 10745 10744 10743 10741 10740 10739 10738 10737 10737 10735 10734 10733 10732 10730 10729 10727 10725 10723 10722 10720 10718 10717 10715
10727 10724 10724 10724 10724 10725 10726 10727 10728 10729 10731 10733 10735 10735 10736 10738 10741 10744 10746 10749 10752 10753 10754 10755 10760 10760 10751 10748 10746 10742 10747 10748 10744 10744 10742 10740 10742 10744 10744 10744 10744 10745 10745 10745 10745 10745 10746 10746 10746 10745 10746 10746 10746 10745 10745 10745 10744 10744 10743 10743 10743 10742 10740 10739 10738 10737 10736 10735 10734 10733 10731 10730 10729 10728 10727 10725 10724 10722 10721 10719 10717 10715 10714 10712 10710 10709
10723 10718 10716 10717 10718 10720 10722 10723 10720 10720 10723 10727 10729 10728 10729 10733 10736 10738 10740 10743 10748 10749 10749 10750 10754 10756 10750 10743 10738 10737 10743 10742 10738 10738 10736 10735 10738 10739 10740 10739 10739 10739 10739 10740 10740 10740 10741 10741 10740 10741 10741 10741 10741 10741 10740 10739 10739 10739 10739 10738 10737 10736 10735 10734 10732 10731 10730 10730 10728 10727 10725 10724 10723 10722 10720 10719 10717 10716 10714 10713 10711 10709 10707 10706 10704 10702
10717 10710 10708 10711 10713 10716 10718 10715 10710 10710 10716 10721 10722 10721 10723 10728 10731 10733 10734 10738 10743 10745 10747 10746 10743 10750 10751 10740 10731 10733 10738 10735 10730 10730 10731 10731 10733 10735 10735 10735 10734 10734 10734 10734 10735 10735 10735 10735 10735 10735 10735 10735 10735 10735 10734 10734 10734 10734 10733 10732 10731 10731 10730 10728 10727 10726 10725 10724 10722 10720 10719 10718 10717 10715 10714 10712 10711 10709 10708 10706 10704 10702 10701 10699 10697 10695
10707 10704 10703 10705 10707 10710 10710 10706 10703 10703 10708 10713 10715 10716 10718 10721 10724 10727 10730 10734 10738 10741 10746 10740 10732 10741 10749 10739 10730 10729 10729 10725 10722 10723 10727 10727 10728 10730 10731 10731 10730 10730 10730 10729 10729 10729 10729 10730 10729 10729 10729 10729 10729 10728 10728 10728 10728 10728 10727 10726 10725 10724 10723 10722 10721 10720 10718 10717 10716 10714 10713 10711 10710 10709 10707 10706 10704 10703 10701 10699 10697 10695 10694 10692 10690 10688
10699 10700 10699 10698 10700 10702 10700 10698 10698 10698 10700 10705 10708 10709 10711 10713 10717 10722 10726 10730 10733 10739 10741 10730 10722 10734 10745 10739 10731 10726 10719 10713 10713 10715 10719 10722 10723 10725 10726 10726 10726 10726 10725 10724 10724 10724 10724 10724 10724 10723 10723 10723 10723 10722 10722 10722 10721 10721 10721 10720 10719 10718 10717 10716 10714 10713 10712 10711 10709 10707 10706 10705 10703 10702 10700 10698 10697 10695 10694 10692 10690 10688 10686 10684 10682 10681
10693 10693 10693 10693 10694 10693 10691 10692 10693 10692 10693 10696 10699 10701 10703 10707 10712 10718 10723 10724 10728 10735 10731 10719 10718 10731 10743 10737 10727 10724 10716 10705 10704 10706 10709 10714 10717 10720 10721 10721 10721 10720 10720 10719 10719 10719 10720 10720 10719 10718 10718 10717 10717 10716 10715 10715 10715 10715 10714 10713 10712 10712 10711 10709 10708 10707 10706 10704 10702 10701 10699 10698 10696 10694 10692 10691 10689 10688 10686 10684 10682 10680 10678 10676 10675 10673
10684 10684 10686 10687 10687 10686 10685 10686 10686 10684 10685 10687 10690 10694 10697 10702 10708 10712 10717 10717 10722 10727 10721 10714 10718 10729 10738 10730 10719 10719 10714 10704 10701 10702 10703 10706 10708 10711 10713 10714 10714 10714 10714 10714 10714 10715 10715 10715 10714 10713 10713 10712 10711 10710 10709 10709 10709 10708 10707 10707 10706 10705 10704 10702 10701 10700 10699 10697 10695 10693 10692 10690 10688 10687 10685 10684 10682 10680 10678 10676 10674 10673 10671 10669 10667 10665
10674 10675 10678 10680 10682 10683 10680 10678 10676 10677 10677 10679 10684 10689 10692 10697 10702 10707 10710 10710 10714 10718 10715 10713 10717 10724 10728 10721 10713 10714 10713 10706 10702 10699 10698 10699 10700 10701 10702 10705 10707 10708 10708 10709 10708 10708 10708 10708 10708 10707 10707 10707 10705 10704 10703 10703 10703 10702 10701 10700 10699 10698 10697 10695 10694 10693 10691 10690 10688 10686 10685 10683 10681 10679 10677 10676 10674 10672 10671 10669 10667 10665 10663 10661 10659 10656
10665 10667 10670 10674 10676 10675 10671 10670 10671 10671 10671 10675 10680 10683 10686 10691 10695 10700 10702 10702 10707 10711 10710 10711 10714 10719 10719 10712 10708 10710 10710 10707 10702 10697 10695 10694 10692 10692 10693 10696 10699 10702 10703 10703 10701 10700 10701 10701 10701 10701 10700 10700 10699 10698 10697 10696 10696 10695 10694 10693 10692 10691 10689 10688 10686 10685 10684 10682 10681 10679 10677 10675 10673 10672 10670 10669 10667 10665 10663 10661 10659 10657 10655 10653 10650 10648
10656 10660 10665 10665 10665 10665 10663 10664 10665 10665 10668 10674 10677 10677 10681 10683 10683 10689 10693 10696 10701 10703 10704 10707 10709 10713 10711 10706 10704 10704 10702 10699 10697 10695 10693 10691 10688 10687 10688 10689 10692 10694 10695 10695 10694 10694 10694 10694 10694 10694 10693 10692 10692 10691 10690 10690 10689 10688 10687 10686 10685 10684 10682 10681 10679 10678 10677 10675 10673 10671 10669 10668 10666 10664 10663 10661 10660 10658 10655 10653 10651 10649 10647 10644 10642 10639
10647 10653 10657 10653 10654 10657 10657 10659 10661 10663 10666 10671 10673 10673 10676 10673 10671 10679 10687 10691 10693 10696 10699 10702 10704 10706 10704 10703 10701 10697 10693 10689 10689 10691 10690 10687 10685 10683 10683 10684 10684 10686 10687 10687 10687 10687 10687 10687 10687 10686 10686 10685 10685 10685 10684 10683 10682 10681 10680 10679 10678 10677 10675 10674 10672 10671 10670 10668 10666 10664 10662 10660 10659 10657 10656 10654 10652 10650 10647 10645 10643 10641 10638 10636 10633 10630
10636 10642 10647 10647 10650 10652 10652 10655 10657 10659 10661 10665 10669 10669 10667 10664 10665 10672 10679 10683 10684 10689 10696 10697 10699 10700 10698 10699 10696 10690 10687 10684 10684 10685 10682 10679 10677 10676 10677 10678 10679 10679 10680 10680 10680 10680 10681 10680 10681 10680 10679 10679 10679 10678 10677 10676 10675 10674 10674 10672 10671 10670 10668 10667 10666 10664 10662 10660 10658 10656 10654 10653 10652 10650 10648 10646 10644 10641 10639 10636 10634 10632 10629 10627 10624 10621
10627 10634 10641 10643 10645 10646 10646 10648 10652 10654 10657 10660 10662 10660 10656 10658 10663 10664 10668 10674 10675 10682 10691 10693 10693 10694 10692 10694 10690 10683 10683 10682 10681 10679 10674 10669 10667 10668 10670 10672 10673 10673 10673 10673 10673 10673 10673 10673 10673 10673 10673 10673 10672 10671 10670 10669 10669 10668 10667 10665 10664 10663 10662 10660 10659 10657 10655 10653 10651 10649 10647 10645 10644 10642 10640 10638 10635 10633 10630 10628 10625 10622 10620 10617 10615 10611
10623 10628 10635 10637 10638 10639 10639 10641 10647 10651 10651 10651 10651 10650 10649 10653 10657 10655 10658 10665 10668 10673 10682 10687 10687 10688 10688 10688 10685 10681 10680 10678 10676 10671 10665 10661 10659 10660 10663 10664 10666 10666 10666 10666 10666 10665 10665 10665 10666 10666 10665 10665 10664 10664 10663 10662 10662 10661 10660 10659 10657 10656 10655 10653 10651 10649 10647 10645 10643 10641 10639 10638 10636 10634 10632 10629 10626 10623 10621 10619 10616 10613 10611 10608 10605 10602
10616 10619 10627 10632 10632 10631 10633 10637 10642 10643 10640 10639 10641 10643 10644 10646 10649 10649 10650 10655 10659 10662 10670 10676 10681 10684 10685 10683 10680 10679 10677 10673 10667 10663 10659 10654 10652 10654 10655 10656 10658 10659 10659 10660 10659 10659 10659 10658 10658 10658 10657 10657 10656 10656 10655 10654 10654 10653 10652 10651 10649 10648 10647 10645 10643 10641 10639 10637 10635 10633 10631 10629 10627 10625 10623 10620 10617 10614 10612 10609 10606 10604 10601 10598 10595 10592
10609 10613 10621 10624 10624 10625 10629 10632 10631 10630 10629 10631 10635 10639 10640 10640 10641 10641 10642 10646 10648 10652 10657 10663 10673 10682 10681 10677 10676 10675 10672 10664 10658 10657 10654 10648 10646 10648 10649 10650 10651 10652 10653 10653 10653 10653 10652 10651 10651 10651 10650 10649 10649 10649 10648 10647 10647 10646 10645 10643 10641 10640 10638 10636 10635 10633 10631 10629 10627 10625 10623 10621 10619 10617 10614 10611 10608 10605 10602 10600 10597 10594 10591 10588 10585 10582
10602 10604 10607 10611 10616 10621 10622 10621 10621 10623 10626 10629 10631 10634 10634 10632 10631 10632 10636 10639 10637 10640 10645 10650 10665 10679 10676 10670 10672 10670 10663 10654 10650 10652 10650 10643 10641 10642 10643 10643 10644 10644 10645 10646 10647 10646 10645 10645 10644 10644 10643 10642 10642 10642 10641 10640 10639 10638 10637 10635 10633 10631 10630 10628 10627 10625 10623 10621 10619 10617 10614 10612 10610 10607 10604 10601 10599 10596 10593 10590 10587 10584 10581 10577 10574 10571
10590 10590 10595 10602 10610 10614 10612 10612 10616 10619 10622 10623 10625 10628 10626 10624 10624 10623 10626 10628 10627 10632 10639 10641 10654 10671 10670 10665 10667 10662 10653 10648 10645 10646 10644 10640 10638 10637 10635 10635 10636 10637 10637 10638 10640 10639 10638 10638 10637 10637 10637 10636 10635 10635 10634 10633 10632 10630 10629 10627 10625 10623 10621 10620 10619 10617 10615 10613 10611 10608 10605 10603 10600 10598 10595 10592 10589 10586 10583 10580 10577 10574 10571 10567 10564 10561
10580 10580 10586 10592 10598 10602 10602 10606 10610 10613 10616 10618 10620 10621 10617 10615 10614 10610 10613 10618 10620 10629 10635 10632 10644 10661 10661 10658 10658 10651 10645 10643 10641 10639 10638 10637 10636 10632 10628 10627 10627 10630 10630 10630 10631 10631 10631 10631 10630 10630 10630 10629 10628 10627 10626 10626 10624 10622 10620 10619 10617 10615 10613 10612 10610 10609 10607 10604 10602 10599 10596 10593 10591 10588 10585 10583 10580 10577 10574 10570 10567 10564 10561 10557 10554 10551
10570 10570 10574 10578 10584 10591 10595 10601 10607 10609 10607 10607 10608 10608 10607 10606 10603 10601 10606 10608 10614 10628 10629 10624 10637 10650 10646 10645 10648 10643 10640 10637 10634 10633 10632 10631 10630 10626 10623 10622 10622 10623 10623 10622 10623 10623 10623 10623 10623 10623 10622 10621 10621 10620 10619 10617 10615 10613 10612 10610 10608 10606 10605 10604 10602 10600 10598 10595 10593 10590 10586 10583 10581 10578 10576 10573 10571 10568 10564 10561 10557 10554 10551 10548 10544 10541
10560 10560 10563 10567 10575 10585 10592 10597 10600 10597 10591 10591 10598 10600 10600 10599 10596 10596 10597 10599 10611 10625 10620 10617 10630 10638 10633 10633 10636 10634 10632 10629 10626 10626 10624 10621 10620 10620 10620 10618 10616 10614 10614 10614 10614 10615 10615 10615 10614 10614 10613 10613 10612 10611 10610 10608 10606 10604 10602 10600 10599 10597 10596 10594 10593 10591 10588 10585 10583 10580 10577 10574 10571 10568 10566 10564 10561 10558 10554 10550 10547 10544 10541 10538 10534 10530
10551 10551 10555 10560 10569 10579 10586 10586 10583 10580 10578 10584 10592 10592 10590 10591 10590 10588 10589 10598 10608 10610 10609 10616 10621 10621 10624 10625 10623 10623 10621 10618 10618 10616 10614 10612 10612 10615 10616 10612 10609 10607 10606 10606 10605 10605 10606 10605 10605 10605 10604 10604 10603 10602 10600 10599 10597 10594 10592 10591 10589 10588 10587 10585 10583 10581 10578 10576 10573 10570 10567 10564 10561 10558 10556 10554 10551 10547 10544 10540 10537 10534 10531 10527 10523 10519
10544 10544 10549 10555 10560 10569 10576 10572 10568 10569 10572 10577 10580 10580 10581 10583 10581 10581 10588 10599 10599 10590 10600 10616 10608 10606 10620 10618 10610 10611 10609 10606 10607 10604 10603 10606 10607 10607 10607 10605 10603 10601 10598 10597 10596 10596 10596 10597 10597 10597 10595 10594 10593 10592 10590 10588 10587 10584 10582 10581 10579 10578 10577 10575 10573 10571 10568 10566 10563 10560 10557 10554 10551 10549 10546 10543 10540 10537 10533 10530 10526 10524 10520 10516 10512 10507
10535 10536 10542 10546 10547 10556 10564 10561 10558 10562 10565 10566 10568 10569 10572 10572 10573 10578 10586 10592 10584 10575 10594 10608 10596 10598 10614 10609 10601 10601 10595 10593 10595 10593 10596 10599 10599 10599 10598 10597 10598 10595 10591 10589 10587 10587 10587 10588 10588 10587 10585 10584 10582 10581 10580 10579 10577 10575 10573 10571 10569 10568 10567 10565 10563 10561 10558 10556 10553 10549 10547 10544 10542 10539 10536 10533 10530 10526 10523 10519 10516 10513 10509 10504 10500 10495
10527 10530 10535 10535 10536 10546 10555 10552 10549 10552 10554 10556 10558 10559 10562 10564 10568 10575 10578 10577 10569 10567 10585 10594 10583 10590 10605 10601 10595 10592 10582 10581 10585 10585 10587 10587 10587 10590 10590 10590 10590 10588 10586 10582 10579 10578 10577 10577 10577 10577 10575 10574 10571 10570 10571 10570 10568 10565 10562 10561 10560 10559 10557 10555 10554 10551 10548 10546 10542 10539 10537 10535 10532 10529 10526 10522 10518 10515 10512 10508 10505 10501 10497 10492 10487 10482
10519 10524 10527 10526 10526 10537 10547 10542 10537 10540 10543 10546 10548 10551 10557 10564 10566 10566 10564 10561 10557 10560 10573 10575 10570 10586 10598 10590 10582 10579 10575 10575 10577 10576 10576 10574 10575 10578 10580 10582 10583 10581 10579 10576 10572 10570 10568 10566 10566 10565 10565 10563 10561 10561 10561 10560 10559 10556 10553 10550 10550 10549 10547 10545 10543 10540 10538 10535 10532 10529 10526 10523 10521 10518 10515 10511 10507 10504 10501 10497 10494 10489 10483 10479 10473 10469
10512 10514 10518 10518 10516 10527 10539 10533 10526 10530 10530 10529 10539 10552 10562 10563 10558 10552 10550 10551 10550 10552 10557 10557 10563 10582 10587 10574 10569 10570 10568 10567 10567 10567 10566 10565 10565 10566 10569 10571 10572 10571 10570 10567 10566 10564 10560 10558 10557 10555 10554 10553 10552 10551 10550 10549 10549 10547 10543 10541 10540 10539 10537 10535 10532 10529 10527 10524 10520 10518 10515 10512 10510 10507 10503 10500 10496 10493 10489 10485 10481 10475 10470 10465 10460 10456
10507 10505 10508 10510 10508 10518 10528 10523 10519 10519 10512 10516 10540 10557 10556 10550 10544 10541 10544 10547 10545 10542 10543 10546 10557 10571 10569 10560 10562 10563 10557 10555 10556 10557 10557 10556 10556 10556 10558 10560 10559 10560 10559 10558 10557 10556 10553 10552 10549 10547 10546 10544 10543 10542 10539 10539 10539 10537 10534 10532 10531 10530 10528 10525 10522 10520 10518 10514 10510 10507 10505 10502 10500 10496 10492 10489 10485 10481 10477 10472 10466 10461 10456 10452 10448 10444
10501 10499 10500 10499 10498 10505 10513 10512 10509 10503 10500 10519 10543 10547 10538 10534 10534 10534 10537 10540 10537 10533 10534 10539 10548 10556 10553 10549 10551 10551 10546 10546 10546 10546 10546 10546 10546 10545 10545 10546 10547 10548 10548 10547 10548 10547 10545 10544 10542 10540 10538 10535 10534 10532 10530 10530 10529 10526 10526 10524 10522 10521 10519 10516 10513 10511 10508 10504 10500 10497 10495 10492 10489 10485 10481 10478 10473 10469 10464 10458 10452 10447 10443 10439 10435 10431
10488 10491 10493 10490 10487 10491 10498 10497 10491 10489 10502 10524 10532 10527 10524 10527 10526 10523 10524 10528 10527 10525 10527 10530 10536 10543 10541 10537 10539 10538 10536 10536 10536 10538 10539 10536 10534 10532 10531 10532 10533 10534 10535 10536 10537 10536 10535 10535 10533 10531 10529 10526 10524 10522 10520 10519 10517 10516 10516 10515 10513 10511 10508 10505 10503 10500 10497 10493 10489 10487 10484 10481 10477 10473 10470 10465 10460 10455 10450 10444 10438 10434 10429 10426 10421 10417
10474 10477 10480 10479 10477 10478 10481 10481 10479 10485 10499 10511 10513 10516 10520 10519 10514 10508 10507 10514 10519 10518 10518 10520 10525 10531 10530 10526 10526 10524 10522 10523 10527 10532 10533 10527 10521 10518 10518 10520 10521 10522 10524 10525 10525 10526 10525 10524 10522 10520 10518 10516 10514 10512 10510 10508 10506 10505 10504 10503 10501 10499 10496 10493 10492 10489 10484 10480 10477 10475 10472 10468 10464 10460 10455 10450 10446 10441 10436 10430 10425 10420 10416 10411 10407 10402
10463 10463 10464 10464 10465 10466 10466 10467 10470 10473 10481 10494 10505 10513 10512 10505 10500 10493 10489 10500 10513 10513 10510 10510 10513 10517 10517 10514 10511 10509 10508 10512 10520 10527 10524 10515 10508 10507 10507 10510 10510 10510 10512 10513 10512 10513 10513 10512 10512 10509 10507 10506 10503 10500 10498 10497 10496 10494 10492 10490 10488 10486 10483 10481 10479 10475 10470 10467 10464 10461 10458 10454 10449 10445 10440 10436 10432 10427 10421 10416 10411 10406 10401 10396 10392 10387
10451 10452 10453 10451 10452 10455 10455 10454 10455 10455 10466 10489 10502 10500 10494 10492 10490 10481 10474 10488 10508 10510 10502 10497 10497 10503 10504 10499 10498 10497 10496 10501 10513 10517 10509 10501 10500 10500 10500 10500 10500 10500 10501 10500 10499 10500 10500 10500 10500 10498 10496 10494 10492 10490 10488 10485 10483 10482 10480 10478 10474 10472 10470 10468 10464 10460 10457 10454 10452 10448 10444 10439 10435 10430 10426 10423 10418 10413 10407 10403 10398 10392 10386 10381 10376 10371
10437 10440 10442 10439 10438 10442 10443 10442 10441 10443 10459 10482 10489 10484 10481 10481 10478 10467 10462 10482 10505 10503 10490 10483 10483 10488 10490 10487 10487 10488 10487 10492 10501 10502 10494 10491 10494 10493 10491 10491 10490 10489 10490 10489 10488 10488 10488 10488 10487 10486 10484 10482 10480 10478 10476 10473 10471 10469 10466 10464 10461 10459 10457 10453 10449 10447 10444 10441 10438 10434 10430 10425 10420 10417 10413 10409 10404 10399 10394 10389 10383 10377 10371 10366 10361 10355
10425 10427 10428 10426 10426 10430 10432 10430 10430 10435 10449 10465 10470 10469 10469 10467 10462 10455 10458 10479 10494 10487 10475 10473 10472 10474 10477 10477 10478 10478 10477 10480 10486 10485 10483 10483 10483 10481 10481 10481 10479 10478 10479 10478 10478 10477 10476 10476 10475 10474 10473 10471 10468 10466 10463 10460 10458 10456 10453 10451 10448 10446 10442 10439 10437 10435 10431 10428 10424 10420 10416 10411 10407 10403 10399 10395 10390 10385 10380 10375 10368 10362 10356 10350 10344 10339
10413 10414 10414 10414 10417 10419 10420 10419 10420 10426 10439 10448 10450 10452 10453 10450 10448 10450 10456 10467 10472 10468 10467 10467 10464 10464 10466 10465 10465 10466 10466 10467 10470 10471 10472 10472 10470 10470 10469 10467 10466 10466 10466 10465 10465 10464 10463 10463 10462 10460 10459 10457 10455 10453 10450 10448 10446 10444 10441 10439 10436 10432 10429 10427 10425 10421 10417 10414 10410 10405 10401 10397 10393 10389 10385 10380 10376 10370 10365 10359 10353 10347 10341 10334 10328 10324
10403 10404 10403 10405 10409 10410 10410 10409 10408 10415 10429 10436 10434 10434 10435 10434 10435 10442 10448 10450 10453 10456 10459 10458 10456 10457 10456 10453 10453 10453 10453 10454 10455 10456 10457 10458 10458 10457 10456 10454 10454 10453 10452 10452 10452 10451 10450 10449 10448 10446 10445 10443 10442 10440 10437 10435 10433 10431 10428 10425 10422 10419 10416 10413 10410 10406 10402 10399 10395 10391 10387 10383 10379 10375 10370 10365 10360 10355 10349 10343 10337 10331 10325 10319 10314 10308
10392 10392 10392 10397 10401 10400 10399 10398 10398 10408 10422 10424 10417 10415 10417 10419 10423 10430 10434 10436 10441 10445 10445 10445 10447 10448 10446 10445 10444 10442 10442 10442 10441 10441 10442 10442 10443 10443 10442 10442 10442 10440 10440 10440 10438 10437 10436 10435 10434 10433 10431 10430 10428 10426 10424 10422 10419 10417 10414 10411 10408 10405 10402 10398 10395 10391 10388 10384 10380 10376 10373 10368 10364 10360 10355 10350 10345 10339 10334 10328 10321 10316 10310 10304 10298 10292
10378 10380 10382 10388 10391 10389 10388 10390 10393 10401 10407 10406 10401 10402 10404 10406 10411 10415 10419 10423 10428 10430 10431 10433 10435 10435 10435 10435 10434 10432 10432 10431 10429 10428 10428 10428 10428 10428 10428 10428 10428 10428 10427 10426 10424 10424 10423 10421 10420 10419 10417 10416 10414 10412 10410 10408 10405 10403 10400 10397 10395 10392 10388 10384 10381 10378 10375 10371 10367 10363 10358 10354 10350 10345 10340 10335 10329 10324 10319 10313 10307 10301 10296 10289 10283 10278
10369 10371 10372 10376 10377 10375 10377 10381 10384 10387 10390 10390 10392 10394 10393 10394 10398 10401 10404 10407 10410 10414 10418 10420 10420 10422 10424 10423 10422 10422 10421 10419 10419 10418 10417 10416 10416 10414 10413 10414 10414 10414 10413 10412 10411 10410 10409 10407 10406 10404 10403 10401 10399 10398 10396 10394 10391 10389 10386 10383 10381 10377 10374 10370 10367 10364 10360 10356 10352 10348 10344 10340 10335 10330 10325 10320 10315 10310 10304 10298 10293 10287 10281 10275 10270 10264
10359 10360 10361 10363 10365 10365 10367 10371 10375 10377 10379 10379 10381 10382 10382 10383 10386 10387 10389 10391 10394 10397 10401 10403 10406 10409 10410 10410 10410 10410 10409 10408 10408 10406 10405 10404 10402 10401 10400 10399 10398 10399 10399 10398 10397 10396 10394 10393 10391 10389 10388 10387 10384 10383 10381 10378 10376 10374 10371 10368 10365 10362 10359 10355 10352 10348 10345 10341 10336 10332 10328 10324 10319 10314 10310 10305 10300 10295 10290 10284 10279 10273 10267 10262 10256 10250
10347 10350 10351 10352 10355 10357 10360 10364 10367 10368 10368 10369 10370 10370 10371 10372 10372 10374 10375 10377 10378 10381 10384 10387 10389 10391 10393 10394 10395 10394 10394 10394 10393 10392 10391 10389 10387 10386 10386 10384 10384 10384 10383 10383 10382 10380 10378 10377 10375 10374 10373 10371 10369 10367 10365 10362 10360 10357 10354 10352 10349 10346 10343 10339 10335 10332 10328 10324 10320 10316 10311 10307 10303 10299 10294 10289 10285 10280 10275 10270 10265 10259 10254 10248 10240 10234
10336 10338 10340 10342 10345 10349 10352 10357 10359 10358 10359 10360 10359 10358 10358 10358 10359 10361 10362 10363 10365 10367 10369 10371 10372 10373 10375 10376 10377 10378 10378 10377 10376 10375 10373 10372 10371 10371 10370 10370 10370 10369 10367 10366 10365 10364 10363 10361 10360 10358 10357 10355 10353 10351 10349 10346 10344 10341 10338 10336 10332 10329 10326 10322 10319 10315 10311 10307 10304 10300 10296 10292 10288 10284 10280 10275 10271 10266 10261 10256 10250 10245 10239 10232 10224 10217
10324 10328 10330 10333 10336 10340 10344 10348 10349 10347 10348 10348 10347 10346 10347 10347 10348 10350 10350 10352 10353 10353 10355 10356 10357 10358 10359 10359 10361 10362 10361 10360 10359 10358 10356 10355 10355 10355 10355 10355 10354 10352 10351 10350 10349 10348 10347 10346 10345 10343 10341 10339 10337 10335 10333 10330 10328 10325 10322 10319 10316 10313 10310 10306 10303 10300 10296 10292 10289 10284 10281 10277 10273 10269 10265 10260 10256 10251 10245 10240 10235 10229 10222 10215 10207 10201
10314 10318 10322 10325 10327 10330 10333 10335 10333 10334 10336 10338 10338 10337 10336 10337 10338 10338 10338 10338 10340 10340 10342 10343 10343 10344 10345 10345 10345 10345 10344 10343 10343 10342 10341 10341 10341 10340 10340 10339 10338 10336 10335 10334 10333 10332 10331 10330 10329 10328 10326 10323 10322 10319 10317 10315 10312 10310 10307 10304 10301 10298 10295 10292 10288 10284 10281 10277 10273 10269 10265 10261 10257 10253 10248 10243 10239 10234 10228 10223 10217 10211 10205 10197 10190 10183
10300 10304 10309 10313 10316 10319 10321 10320 10319 10323 10327 10327 10326 10326 10326 10327 10326 10325 10325 10326 10326 10327 10328 10329 10330 10331 10331 10331 10330 10329 10328 10327 10326 10327 10327 10327 10327 10327 10326 10324 10323 10322 10320 10319 10318 10317 10315 10314 10313 10312 10310 10308 10306 10304 10302 10299 10297 10295 10292 10289 10286 10283 10279 10276 10272 10268 10264 10260 10256 10252 10248 10243 10239 10235 10230 10225 10220 10215 10210 10204 10198 10192 10186 10179 10172 10165